sat.trackr.live / text

‹ back to catalog

ELECTRON KICK STAGE R/B

NORAD 69178 · 2026-112B

ROCKET_BODY UNKNOWN UNKNOWN

§ Identity

Operator
Country
US
Launch date
2026-05-22
Launch site
RLLB
Launch vehicle
Mass (kg)
RCS (m²)

External: N2YO · Heavens-Above · Gunter

§ Orbital elements

Epoch: 2026-06-20T10:02:26.729088Z

Period
95.86 min
Inclination
44.9055°
Eccentricity
0.0024316
Mean motion
15.02207020 rev/d
Perigee alt
543.2 km
Apogee alt
577.0 km
Semi-major
6,938.2 km
B*
2.8746e-4
RAAN
175.3007°
Arg perigee
67.9151°
Mean anomaly
292.4299°
Rev number
436

§ Raw data

ELECTRON KICK STAGE R/B1 69178U 26112B   26171.41836492  .00003634  00000+0  28746-3 0  99922 69178  44.9055 175.3007 0024316  67.9151 292.4299 15.02207020  4367

JSON: /api/v1/satellites/69178 · /tle

For live sub-satellite position, see the globe view (requires WebGL).

§ Visibility from observer

Set your observer location to see the next 7 days of passes ≥ 10°. The values pass through the URL so the page stays shareable.

No JS? Fill the form by hand. The geolocation button needs JavaScript.